Temp
-6 -6 -6 -6 -6 -6 -6 -7 -7 -7 -7 -7 -8 -8 -8 -8 -8 -9 -10 -10 -9 -9 -9 -8 -9 -8 -8 -9 -9 -9 -9 -8 -8 -9 -9 -9 -9 -8 -8 -8 -9 -9 -7 -6
-7 -6 -6 -6 -6 -6 -6 -7 -7 -7 -7 -7 -7 -7 -8 -8 -8 -9 -9 -10 -9 -9 -10 -9 -9 -10 -9 -10 -10 -9 -10 -9 -9 -9 -9 -9 -9 -9 -8 -8 -9 -9 -8 -7
-7 -7 -6 -6 -6 -6 -6 -7 -7 -7 -7 -7 -8 -8 -8 -9 -9 -9 -9 -9 -9 -10 -10 -10 -10 -10 -10 -10 -10 -10 -10 -9 -9 -9 -9 -9 -9 -9 -9 -9 -9 -8 -8 -8
-7 -7 -7 -7 -7 -7 -7 -7 -8 -7 -7 -7 -7 -8 -8 -8 -9 -9 -9 -10 -9 -10 -10 -10 -10 -10 -10 -10 -10 -10 -10 -10 -10 -9 -9 -9 -9 -9 -8 -8 -9 -8 -8 -8
-8 -7 -7 -7 -7 -7 -7 -7 -8 -7 -7 -8 -8 -8 -8 -8 -9 -9 -9 -9 -10 -10 -10 -10 -10 -10 -10 -10 -10 -10 -10 -10 -10 -10 -9 -9 -8 -8 -9 -8 -8 -8 -8 -8
-8 -8 -8 -8 -7 -7 -7 -8 -8 -8 -8 -8 -8 -8 -8 -9 -9 -9 -10 -9 -9 -10 -10 -10 -10 -10 -10 -10 -10 -10 -10 -10 -10 -10 -10 -9 -9 -8 -9 -8 -8 -8 -8 -8
-8 -8 -8 -8 -8 -8 -8 -8 -8 -8 -8 -9 -9 -8 -9 -9 -9 -10 -10 -10 -10 -10 -11 -10 -10 -10 -10 -10 -10 -10 -10 -10 -10 -10 -10 -10 -8 -8 -8 -8 -8 -8 -8 -8
-9 -9 -9 -8 -8 -8 -8 -8 -8 -9 -9 -9 -8 -8 -9 -10 -9 -10 -10 -11 -11 -11 -11 -11 -11 -10 -9 -10 -10 -10 -10 -10 -10 -10 -10 -9 -9 -8 -8 -9 -8 -9 -8 -8
-9 -9 -9 -9 -8 -8 -8 -8 -8 -9 -9 -9 -9 -9 -9 -10 -10 -10 -10 -12 -12 -12 -12 -11 -11 -11 -10 -10 -10 -10 -10 -10 -10 -10 -10 -10 -9 -8 -8 -9 -9 -9 -9 -9
-10 -10 -9 -9 -9 -9 -8 -8 -9 -9 -9 -9 -9 -9 -9 -10 -10 -10 -10 -11 -13 -12 -12 -12 -12 -11 -11 -11 -11 -11 -10 -11 -10 -10 -10 -9 -9 -9 -9 -9 -8 -8 -8 -8
-10 -10 -10 -10 -10 -9 -9 -9 -9 -9 -10 -9 -9 -9 -10 -10 -10 -10 -10 -11 -12 -12 -12 -12 -12 -12 -12 -11 -11 -10 -10 -10 -10 -10 -10 -10 -9 -9 -9 -9 -9 -8 -8 -8
-11 -11 -10 -10 -10 -10 -9 -9 -9 -9 -10 -10 -9 -9 -10 -10 -9 -10 -10 -11 -11 -12 -12 -12 -12 -11 -11 -11 -11 -10 -10 -10 -11 -11 -10 -10 -9 -9 -9 -9 -9 -8 -9 -8
-11 -11 -11 -10 -10 -10 -10 -10 -10 -10 -10 -10 -10 -10 -10 -10 -10 -10 -10 -11 -11 -11 -12 -12 -12 -11 -11 -11 -11 -11 -10 -10 -10 -10 -10 -10 -10 -10 -9 -9 -9 -9 -9 -9
-12 -11 -11 -11 -10 -10 -10 -10 -10 -10 -10 -10 -10 -10 -10 -10 -10 -10 -11 -10 -11 -12 -12 -12 -12 -12 -11 -11 -11 -10 -10 -10 -10 -10 -10 -10 -10 -10 -10 -10 -10 -9 -9 -9
-12 -12 -11 -11 -11 -10 -10 -11 -11 -11 -11 -11 -11 -11 -10 -10 -10 -10 -11 -11 -11 -11 -12 -12 -11 -11 -11 -11 -10 -10 -11 -11 -11 -11 -11 -10 -10 -10 -10 -10 -10 -9 -10 -9
-12 -12 -12 -11 -11 -11 -11 -11 -11 -11 -11 -11 -11 -11 -11 -11 -11 -10 -11 -11 -11 -10 -11 -11 -11 -11 -11 -11 -11 -11 -11 -11 -11 -11 -11 -11 -10 -10 -10 -9 -9 -9 -9 -9
-12 -12 -12 -12 -11 -11 -11 -11 -11 -11 -11 -11 -11 -11 -11 -11 -11 -11 -11 -11 -11 -11 -11 -11 -11 -11 -11 -10 -9 -10 -10 -11 -11 -11 -11 -10 -10 -10 -10 -9 -9 -9 -9 -8
-13 -13 -13 -13 -12 -12 -12 -12 -12 -12 -12 -12 -12 -11 -11 -11 -11 -11 -11 -11 -11 -11 -11 -11 -11 -11 -11 -9 -11 -10 -10 -10 -11 -11 -11 -11 -10 -10 -10 -10 -9 -9 -9 -9
-13 -13 -13 -13 -13 -12 -12 -12 -12 -13 -13 -12 -12 -12 -12 -11 -11 -11 -11 -11 -11 -11 -11 -11 -11 -11 -9 -10 -10 -10 -10 -10 -10 -11 -11 -11 -10 -10 -10 -10 -10 -9 -9 -9
-14 -14 -14 -14 -13 -13 -13 -13 -13 -13 -13 -12 -12 -12 -12 -11 -11 -11 -11 -11 -11 -11 -11 -11 -11 -11 -11 -10 -10 -10 -10 -10 -10 -10 -11 -11 -11 -9 -10 -9 -9 -9 -8 -8
-15 -14 -14 -14 -14 -13 -14 -14 -14 -13 -13 -12 -12 -12 -12 -12 -12 -11 -11 -12 -11 -11 -11 -11 -11 -11 -11 -10 -10 -10 -10 -10 -10 -11 -10 -10 -10 -10 -9 -10 -10 -10 -10 -9
-15 -14 -14 -14 -14 -14 -14 -14 -14 -13 -13 -13 -12 -12 -12 -12 -12 -11 -12 -12 -11 -12 -11 -11 -11 -12 -11 -11 -11 -11 -10 -10 -10 -10 -11 -10 -9 -9 -10 -10 -9 -10 -11 -10
-15 -15 -15 -15 -15 -15 -15 -14 -14 -14 -13 -13 -12 -12 -12 -12 -12 -12 -12 -12 -11 -11 -11 -11 -12 -11 -11 -11 -11 -11 -11 -10 -10 -10 -10 -10 -11 -10 -10 -10 -11 -11 -11 -11
-16 -16 -15 -15 -15 -15 -15 -15 -14 -14 -14 -13 -12 -12 -12 -12 -12 -12 -12 -12 -12 -12 -11 -11 -12 -12 -12 -12 -11 -10 -10 -10 -10 -10 -10 -10 -11 -11 -10 -11 -11 -11 -11 -11
-16 -15 -15 -15 -15 -15 -15 -15 -15 -14 -14 -13 -13 -13 -13 -12 -12 -12 -12 -12 -12 -12 -12 -12 -12 -12 -12 -12 -12 -11 -11 -12 -12 -12 -12 -11 -11 -11 -10 -10 -11 -11 -11 -11
-15 -16 -16 -16 -16 -16 -15 -15 -15 -15 -15 -14 -14 -14 -13 -13 -12 -12 -12 -12 -13 -13 -12 -12 -12 -12 -13 -12 -13 -12 -12 -12 -11 -11 -11 -11 -11 -11 -11 -11 -11 -11 -11 -11
-16 -16 -16 -16 -16 -16 -16 -16 -15 -15 -15 -14 -14 -14 -13 -13 -12 -12 -12 -12 -13 -13 -12 -11 -12 -12 -12 -12 -11 -11 -11 -11 -11 -11 -11 -11 -11 -11 -11 -11 -11 -11 -12 -12
Height
5824 5824 5822 5821 5821 5820 5819 5818 5820 5820 5821 5824 5824 5825 5825 5826 5825 5830 5833 5834 5837 5840 5841 5843 5846 5847 5849 5850 5850 5853 5856 5859 5862 5867 5872 5875 5876 5878 5880 5882 5886 5885 5886 5891
5818 5817 5816 5815 5814 5814 5814 5814 5814 5816 5816 5817 5818 5819 5822 5825 5824 5825 5829 5832 5833 5836 5839 5841 5841 5843 5846 5846 5848 5849 5852 5854 5859 5863 5868 5871 5873 5874 5877 5878 5879 5879 5882 5885
5812 5811 5810 5809 5808 5808 5810 5810 5811 5810 5810 5812 5813 5816 5818 5819 5818 5820 5823 5829 5829 5832 5834 5837 5839 5842 5842 5843 5845 5846 5848 5851 5854 5860 5865 5867 5869 5871 5872 5874 5874 5876 5876 5879
5806 5805 5805 5805 5804 5804 5805 5805 5806 5805 5805 5805 5808 5810 5811 5813 5815 5814 5817 5820 5824 5827 5831 5832 5834 5838 5839 5840 5842 5843 5845 5848 5850 5854 5858 5861 5864 5866 5867 5868 5869 5871 5874 5874
5799 5799 5799 5800 5800 5799 5800 5800 5801 5800 5801 5802 5803 5806 5807 5809 5812 5812 5811 5815 5818 5821 5825 5826 5829 5831 5834 5836 5838 5839 5841 5842 5845 5848 5852 5854 5857 5861 5863 5865 5866 5866 5869 5870
5792 5792 5793 5794 5794 5794 5793 5794 5795 5795 5796 5797 5798 5802 5802 5805 5806 5808 5808 5809 5812 5815 5816 5819 5819 5822 5827 5830 5833 5835 5836 5838 5839 5843 5845 5845 5848 5855 5858 5860 5862 5863 5862 5867
5785 5785 5787 5788 5788 5788 5788 5788 5789 5789 5790 5791 5793 5795 5797 5799 5799 5799 5802 5804 5805 5809 5809 5811 5812 5815 5819 5824 5828 5830 5832 5833 5834 5836 5839 5838 5844 5849 5853 5855 5855 5856 5859 5861
5778 5778 5780 5781 5781 5782 5782 5781 5783 5783 5783 5786 5787 5789 5791 5793 5792 5793 5794 5795 5798 5801 5803 5804 5805 5808 5812 5815 5818 5823 5826 5827 5827 5828 5831 5834 5837 5841 5846 5848 5849 5850 5855 5856
5770 5771 5773 5774 5774 5776 5776 5776 5777 5778 5778 5779 5781 5782 5785 5786 5786 5786 5786 5786 5790 5794 5795 5798 5800 5803 5808 5811 5812 5814 5815 5818 5822 5821 5823 5827 5834 5833 5836 5841 5844 5847 5851 5850
5762 5764 5765 5767 5768 5769 5770 5770 5770 5772 5772 5771 5774 5776 5778 5779 5779 5779 5779 5779 5782 5785 5787 5791 5794 5798 5801 5802 5804 5807 5808 5812 5814 5814 5816 5823 5826 5827 5830 5835 5842 5843 5847 5848
5753 5756 5758 5760 5761 5762 5763 5765 5764 5766 5766 5764 5769 5770 5771 5772 5773 5773 5774 5774 5775 5777 5781 5786 5789 5791 5794 5796 5798 5800 5802 5803 5805 5809 5811 5816 5822 5822 5826 5831 5834 5839 5840 5844
5744 5746 5749 5751 5753 5754 5756 5757 5757 5759 5760 5758 5763 5764 5764 5765 5767 5768 5768 5770 5771 5771 5775 5779 5781 5784 5787 5789 5790 5792 5795 5797 5799 5801 5805 5810 5817 5818 5819 5822 5827 5833 5835 5836
5734 5737 5740 5742 5745 5746 5748 5749 5750 5752 5754 5751 5756 5758 5759 5759 5760 5762 5764 5763 5765 5768 5770 5772 5775 5777 5780 5781 5784 5787 5788 5789 5793 5794 5796 5802 5811 5814 5814 5817 5822 5827 5829 5831
5724 5728 5731 5734 5736 5738 5739 5741 5743 5744 5746 5746 5747 5751 5751 5753 5754 5757 5756 5755 5758 5761 5764 5767 5769 5771 5774 5776 5777 5780 5782 5784 5785 5788 5792 5797 5804 5809 5811 5813 5815 5820 5824 5827
5714 5718 5722 5725 5727 5729 5731 5733 5735 5737 5740 5740 5740 5743 5743 5746 5748 5750 5750 5751 5752 5754 5756 5761 5763 5765 5768 5769 5771 5775 5776 5778 5780 5782 5784 5787 5791 5801 5806 5810 5813 5815 5819 5823
5704 5708 5713 5716 5719 5721 5723 5725 5728 5730 5732 5733 5733 5735 5736 5739 5742 5744 5745 5745 5746 5748 5751 5754 5756 5759 5761 5762 5766 5771 5775 5775 5775 5776 5780 5783 5786 5793 5797 5801 5805 5810 5814 5814
5695 5699 5703 5707 5710 5713 5715 5717 5720 5721 5724 5726 5726 5728 5730 5733 5736 5737 5738 5739 5741 5742 5745 5748 5751 5753 5753 5757 5764 5767 5767 5767 5768 5770 5775 5779 5785 5787 5792 5797 5801 5805 5806 5806
5685 5690 5694 5698 5701 5704 5706 5707 5710 5712 5716 5717 5719 5721 5725 5727 5729 5731 5732 5733 5735 5737 5738 5741 5743 5744 5747 5754 5760 5761 5762 5759 5759 5763 5770 5777 5776 5779 5784 5788 5789 5794 5797 5799
5677 5681 5684 5689 5692 5695 5697 5699 5702 5705 5709 5709 5711 5714 5717 5721 5724 5725 5727 5728 5730 5732 5734 5734 5732 5737 5744 5752 5752 5755 5756 5756 5758 5762 5765 5769 5772 5779 5780 5784 5787 5788 5788 5789
5669 5673 5678 5681 5684 5687 5690 5691 5695 5697 5699 5701 5703 5708 5711 5715 5718 5720 5723 5723 5724 5727 5728 5724 5729 5737 5739 5743 5746 5749 5752 5753 5755 5757 5759 5760 5763 5773 5777 5779 5779 5783 5784 5782
5664 5667 5671 5673 5677 5680 5682 5686 5688 5690 5692 5695 5699 5703 5705 5709 5711 5714 5716 5718 5720 5721 5720 5723 5728 5733 5732 5735 5742 5744 5746 5748 5749 5752 5755 5759 5763 5769 5772 5772 5775 5776 5778 5776
5659 5662 5664 5668 5670 5674 5678 5680 5681 5683 5688 5690 5693 5697 5701 5703 5705 5708 5710 5713 5714 5716 5719 5722 5727 5728 5732 5736 5738 5739 5740 5745 5749 5751 5753 5756 5761 5763 5765 5768 5767 5768 5770 5770
5653 5656 5659 5663 5666 5669 5671 5673 5676 5680 5683 5685 5689 5693 5696 5698 5701 5703 5705 5708 5711 5713 5716 5722 5724 5725 5727 5730 5732 5733 5736 5741 5744 5747 5749 5751 5752 5755 5757 5758 5760 5761 5763 5764
5648 5652 5655 5657 5659 5662 5666 5670 5673 5676 5678 5682 5685 5688 5692 5693 5696 5698 5701 5705 5706 5709 5715 5719 5719 5720 5722 5724 5726 5726 5732 5736 5740 5744 5746 5746 5747 5748 5750 5754 5756 5759 5759 5760
5646 5648 5650 5653 5655 5658 5662 5666 5670 5672 5675 5678 5681 5685 5688 5689 5692 5693 5697 5700 5702 5708 5712 5713 5714 5716 5719 5720 5721 5723 5725 5729 5733 5735 5737 5741 5744 5745 5747 5748 5751 5752 5752 5752
5642 5646 5650 5652 5654 5657 5660 5663 5666 5669 5671 5674 5677 5680 5683 5684 5686 5689 5692 5697 5701 5703 5706 5709 5711 5711 5714 5717 5719 5721 5723 5724 5731 5734 5737 5738 5740 5743 5744 5745 5746 5748 5749 5750
5642 5645 5648 5651 5654 5657 5661 5662 5664 5666 5668 5671 5674 5676 5678 5680 5682 5684 5688 5692 5696 5699 5700 5702 5706 5707 5709 5712 5714 5715 5718 5721 5728 5730 5733 5736 5738 5739 5741 5742 5742 5742 5742 5742
Wind_Speed
22 23 23 23 24 23 21 18 18 17 17 16 15 20 27 32 35 32 31 31 27 24 22 19 20 22 16 15 15 11 6 19 23 29 29 26 27 24 32 35 30 36 31 15
22 22 22 24 23 22 19 15 16 15 16 17 19 22 24 28 33 35 35 35 32 29 26 23 24 21 20 14 17 16 12 14 29 36 32 28 24 24 21 20 18 24 32 22
20 19 20 20 19 18 17 15 13 15 17 17 16 17 20 26 33 35 33 33 35 34 32 29 30 23 23 21 19 21 17 19 23 34 31 26 24 24 27 25 22 19 29 23
20 19 19 16 15 16 15 14 13 18 20 20 18 17 22 25 29 34 32 34 32 35 36 32 34 30 26 25 25 24 22 18 22 26 35 34 30 26 27 28 26 26 21 25
22 20 20 16 15 17 18 18 18 20 20 18 18 16 20 22 25 30 32 31 30 32 34 35 39 40 36 31 29 31 29 26 25 22 30 39 39 32 28 28 26 26 25 25
22 22 22 20 18 20 20 20 19 19 19 19 20 15 17 17 21 25 30 32 29 33 35 34 36 45 42 40 35 33 35 33 30 28 27 41 45 41 30 30 31 30 32 26
22 22 23 21 21 22 21 20 19 19 20 19 20 18 17 14 17 24 27 29 31 32 37 35 36 43 44 44 41 38 37 40 39 38 31 32 38 40 38 37 30 40 38 29
24 23 24 22 22 21 18 18 18 20 21 20 19 18 17 17 19 22 23 25 28 32 34 35 35 41 43 43 45 44 43 45 43 45 42 31 28 31 43 36 30 36 23 26
25 24 23 23 20 17 15 17 18 19 21 21 19 18 16 18 22 24 26 28 27 29 33 31 31 28 30 31 37 37 38 42 41 41 39 29 20 29 39 35 31 33 24 21
27 25 22 19 19 19 17 17 18 18 20 25 20 17 18 21 23 25 27 30 36 33 34 31 30 25 20 21 27 26 30 38 44 44 42 28 19 31 33 40 34 36 35 25
29 28 27 24 23 22 19 20 20 19 21 27 20 20 21 21 23 25 25 31 37 38 36 30 28 26 25 21 18 28 30 34 41 47 43 33 23 31 32 29 33 30 40 32
31 30 30 30 28 26 26 21 21 19 21 28 22 21 23 22 20 21 21 26 32 35 31 30 30 30 26 23 21 22 25 26 33 34 43 36 25 23 35 36 32 32 36 39
33 30 29 30 29 28 26 22 22 22 20 28 25 23 21 22 22 22 18 18 28 30 25 24 24 24 22 26 25 22 23 24 30 34 34 43 29 19 30 38 32 28 25 15
32 31 30 29 28 27 26 25 22 22 21 25 28 23 25 23 22 20 21 23 22 26 31 23 21 20 23 24 21 21 24 22 27 26 27 30 28 27 25 26 31 27 11 21
33 31 30 29 27 27 26 27 25 23 22 22 25 24 28 23 23 22 23 21 19 26 30 27 25 21 20 24 23 22 22 19 25 25 21 30 30 26 28 25 27 28 19 24
34 33 34 34 31 30 29 29 28 26 25 21 25 25 27 24 21 21 22 23 22 21 24 27 29 28 26 26 22 16 20 24 26 23 26 29 19 27 24 25 26 26 26 25
34 34 35 33 32 32 32 32 27 27 24 24 26 26 27 24 22 20 21 23 21 21 23 24 28 29 32 29 17 18 18 26 24 27 26 26 23 21 27 26 19 23 29 32
30 36 36 34 34 35 33 30 28 26 25 26 27 27 26 24 22 19 20 20 19 18 20 24 25 31 30 20 14 13 14 12 3 22 27 26 28 21 25 23 26 25 18 19
29 31 37 31 32 31 29 27 25 25 23 24 25 27 26 24 22 21 22 21 18 17 17 24 31 28 21 13 18 13 12 6 8 24 33 32 38 13 15 20 27 26 26 24
21 21 22 25 26 26 26 24 23 22 22 24 27 26 26 24 23 22 22 23 21 17 18 30 27 16 19 18 17 13 11 15 15 18 20 24 35 27 20 22 24 26 26 26
21 23 25 26 24 23 24 21 21 21 24 25 25 24 24 23 23 22 23 22 22 20 25 23 20 14 21 22 15 15 17 18 22 21 21 22 24 28 22 18 22 20 21 24
22 22 23 22 22 22 22 20 21 23 23 23 23 24 23 23 22 22 22 22 23 22 20 17 11 18 16 13 14 17 17 13 17 20 13 14 23 22 22 26 23 15 19 22
24 23 21 21 19 21 23 23 18 21 22 20 21 21 21 23 22 21 21 23 21 21 20 10 8 11 14 17 16 18 17 12 12 13 13 15 17 17 20 17 15 18 20 20
18 17 17 21 23 24 24 23 22 20 17 15 16 19 20 22 21 21 21 20 20 20 13 8 12 14 16 18 21 20 16 13 11 14 18 17 17 22 24 20 20 20 24 24
16 17 17 14 16 20 23 23 25 27 26 22 23 21 21 22 23 23 23 21 21 14 12 9 18 17 21 24 24 17 20 17 16 18 18 19 20 21 18 16 17 20 23 23
18 16 14 13 13 14 16 16 16 17 19 20 20 19 18 20 22 21 22 20 14 15 16 19 15 18 24 21 22 17 23 24 18 16 18 19 16 16 17 17 17 17 19 20
16 14 13 13 14 11 8 13 15 15 15 16 17 17 19 19 20 21 21 18 26 16 17 19 12 20 27 21 21 16 22 23 22 17 15 15 17 17 18 18 16 14 15 17
Wind_Direction
281 285 286 284 286 280 282 276 265 262 252 245 230 215 213 220 229 224 221 231 242 240 245 240 216 214 211 198 196 171 210 217 201 201 199 195 207 215 228 236 255 257 258 221
279 281 283 281 279 274 272 269 268 265 257 252 246 236 229 225 233 237 230 232 242 242 244 244 233 232 210 194 204 198 196 210 190 193 199 205 213 219 212 231 249 257 256 238
274 280 281 281 269 268 269 259 269 259 252 243 235 238 233 226 233 239 242 235 241 240 239 250 237 227 237 217 217 219 220 223 208 207 208 212 221 231 237 233 244 249 253 236
275 274 272 268 265 266 270 258 251 253 256 254 250 226 229 229 230 238 244 246 242 241 238 245 243 224 227 234 230 232 224 236 230 221 211 220 218 224 237 235 230 239 251 240
275 270 254 264 268 276 272 261 253 255 258 252 247 243 245 239 237 242 252 250 253 252 248 241 244 232 226 227 228 229 224 232 231 230 226 223 222 220 235 238 234 241 251 254
268 260 252 258 267 276 274 262 258 257 260 255 252 250 254 250 242 244 248 253 250 248 252 245 243 236 230 224 224 227 229 233 237 235 234 229 225 220 223 232 238 241 245 256
268 257 249 255 265 270 269 265 258 255 256 252 255 254 246 239 239 242 244 251 253 246 251 255 252 242 235 232 227 231 236 238 241 248 245 247 235 226 228 236 243 233 248 247
265 254 249 254 261 263 264 260 253 253 255 251 254 256 246 233 240 236 238 245 250 250 248 254 252 242 238 239 236 236 240 245 248 247 250 252 248 232 228 242 242 220 226 232
256 252 247 253 252 254 261 260 257 253 255 259 252 249 246 237 241 244 237 240 247 251 253 254 253 254 252 248 244 241 239 232 236 245 250 251 250 234 221 223 230 226 225 226
248 244 242 237 255 256 260 267 264 254 252 258 258 252 246 243 243 245 245 237 235 244 247 250 250 258 254 260 238 246 243 234 233 242 252 251 236 228 219 223 232 233 229 229
243 243 235 242 256 256 256 267 268 258 252 257 255 254 254 250 249 252 255 241 231 234 244 249 247 255 253 250 247 243 249 257 244 237 246 247 237 218 216 230 238 236 236 228
238 238 239 243 252 259 262 261 264 261 252 258 251 247 254 257 258 261 264 255 236 236 239 250 258 257 248 241 237 241 251 254 250 255 244 242 230 225 215 222 236 238 228 218
234 238 240 245 247 254 260 257 261 265 254 258 253 245 249 253 255 258 260 248 247 238 243 246 250 246 231 229 240 251 249 256 247 245 247 245 224 225 219 223 236 240 274 246
234 236 242 244 249 254 256 258 261 265 258 254 257 247 246 249 255 254 251 253 236 235 235 242 251 233 232 232 244 249 249 253 252 253 250 243 222 219 216 229 237 241 266 264
232 238 240 242 248 254 258 258 265 264 258 254 255 248 247 249 252 253 251 252 247 229 229 233 234 235 238 237 245 235 237 265 260 266 240 223 212 213 229 226 242 241 251 262
242 238 239 245 249 254 261 263 263 263 260 250 250 247 247 248 253 254 250 247 244 239 232 231 228 228 234 238 247 251 269 260 258 257 239 237 246 208 219 227 228 236 241 248
240 239 239 242 247 253 262 266 259 258 257 250 246 243 243 247 248 249 250 248 242 241 229 235 238 237 238 241 249 255 267 292 236 241 231 236 239 226 229 232 222 233 243 246
239 241 236 240 248 256 263 261 259 257 252 246 242 242 237 240 242 247 248 248 248 245 239 232 235 232 237 239 236 244 242 273 250 207 215 221 225 244 234 233 244 244 229 253
238 240 234 241 248 255 258 259 256 252 244 237 236 236 233 232 237 242 243 244 240 239 242 237 238 236 238 219 228 231 227 231 226 222 216 228 234 220 201 219 234 234 257 259
225 229 235 241 249 256 258 252 245 241 234 227 229 229 232 235 238 242 242 242 246 242 242 238 240 240 230 228 228 228 219 210 198 206 220 235 203 211 225 232 235 235 257 263
234 236 240 245 248 251 245 237 236 231 228 223 225 227 230 234 237 239 237 236 237 235 242 246 237 222 226 225 223 226 220 210 220 215 208 209 200 217 236 223 230 237 233 258
243 243 241 238 240 238 232 229 227 225 228 226 224 226 231 235 236 234 231 228 232 234 241 252 230 226 231 223 222 230 240 226 223 223 225 217 218 219 222 239 257 268 253 259
235 232 233 231 229 227 222 221 225 229 225 224 222 228 234 232 230 227 227 230 232 236 240 237 222 213 210 211 221 227 235 239 238 228 228 215 234 231 232 243 254 261 270 274
218 219 226 229 228 221 224 215 218 223 227 226 230 239 232 228 227 231 232 231 229 235 233 214 220 206 197 204 211 215 216 220 225 222 218 221 230 243 248 243 251 257 264 270
212 219 211 210 209 207 220 221 223 230 234 241 243 239 234 230 230 233 234 234 239 241 231 193 194 196 204 207 214 219 218 208 223 230 234 240 241 245 252 255 262 268 266 269
208 191 198 200 193 196 202 212 221 225 223 226 229 228 228 230 232 232 234 230 213 211 206 216 212 207 200 204 213 222 199 206 222 225 245 250 245 249 253 249 248 246 251 260
180 185 188 188 191 175 190 225 220 228 233 233 235 235 237 236 234 235 227 213 200 199 203 207 220 211 202 208 217 213 205 212 217 233 213 213 224 229 233 238 245 253 261 268